Location: Campillo
(40.8621°N, 4.2488°W)
Time: 12:00:40
(UTC+00:00)

ATLAS 5 CENTAUR R/B - Pass Details

Date: 30 September 2021
Orbit: 509 x 1148 km, 63.4° (Epoch: 11 October)

Event Time Altitude Azimuth Distance (km) Brightness Sun altitude
Rises 05:27:46 0° 337° (NNW) 3,124 5.0 -9.3°
Reaches altitude 10° 05:31:43 10° 9° (N) 2,362 4.7 -8.6°
Maximum altitude 05:33:48 12° 32° (NNE) 2,301 5.0 -8.2°
Drops below altitude 10° 05:36:00 10° 54° (NE) 2,531 5.7 -7.8°
Sets 05:40:38 0° 83° (E) 3,643 8.1 -6.9°
